TimeMDT,TemperatureF,Dew PointF,Humidity,Sea Level PressureIn,VisibilityMPH,Wind Direction,Wind SpeedMPH,Gust SpeedMPH,PrecipitationIn,Events,Conditions,WindDirDegrees,DateUTC
1:52 AM,30.9,12.0,46,29.85,10.0,Calm,Calm,-,N/A,,Clear,0,2013-03-22 07:52:00
2:52 AM,27.0,12.9,56,29.88,10.0,North,11.5,-,N/A,,Clear,10,2013-03-22 08:52:00
3:52 AM,27.0,12.0,53,29.88,10.0,North,9.2,-,N/A,,Clear,360,2013-03-22 09:52:00
4:52 AM,28.0,10.0,47,29.86,10.0,NNW,10.4,-,N/A,,Clear,330,2013-03-22 10:52:00
5:52 AM,23.0,12.0,63,29.88,10.0,SSE,4.6,-,N/A,,Clear,150,2013-03-22 11:52:00
6:52 AM,21.0,10.9,65,29.89,10.0,Calm,Calm,-,N/A,,Clear,0,2013-03-22 12:52:00
7:52 AM,21.9,10.9,63,29.91,10.0,NW,5.8,-,N/A,,Clear,320,2013-03-22 13:52:00
8:52 AM,30.9,12.9,47,29.90,10.0,Calm,Calm,-,N/A,,Clear,0,2013-03-22 14:52:00
9:52 AM,33.1,12.9,43,29.87,10.0,South,3.5,-,N/A,,Clear,190,2013-03-22 15:52:00
10:52 AM,37.9,10.9,33,29.87,10.0,Calm,Calm,-,N/A,,Clear,0,2013-03-22 16:52:00
11:52 AM,43.0,9.0,25,29.85,10.0,Variable,3.5,-,N/A,,Clear,0,2013-03-22 17:52:00
12:52 PM,46.0,10.9,24,29.83,10.0,Variable,5.8,-,N/A,,Clear,0,2013-03-22 18:52:00
1:52 PM,46.9,12.0,24,29.81,10.0,North,15.0,23.0,N/A,,Clear,350,2013-03-22 19:52:00
2:52 PM,48.9,12.0,23,29.80,10.0,North,13.8,20.7,N/A,,Clear,10,2013-03-22 20:52:00
3:52 PM,48.0,15.1,27,29.80,10.0,NNE,18.4,25.3,N/A,,Clear,20,2013-03-22 21:52:00
4:52 PM,45.0,17.1,33,29.81,10.0,NNE,20.7,27.6,N/A,,Clear,30,2013-03-22 22:52:00
5:52 PM,42.1,16.0,35,29.84,10.0,NNE,21.9,28.8,N/A,,Clear,20,2013-03-22 23:52:00
6:52 PM,39.0,14.0,36,29.88,10.0,NNE,24.2,31.1,N/A,,Clear,20,2013-03-23 00:52:00
7:52 PM,34.0,15.1,46,29.93,10.0,NNE,20.7,27.6,N/A,,Clear,30,2013-03-23 01:52:00
8:52 PM,32.0,14.0,48,29.95,10.0,NNE,28.8,33.4,N/A,,Clear,30,2013-03-23 02:52:00
9:52 PM,28.9,15.1,56,30.01,10.0,North,27.6,36.8,N/A,,Mostly Cloudy,10,2013-03-23 03:52:00
10:52 PM,28.9,12.9,51,30.02,10.0,NNE,11.5,23.0,N/A,,Mostly Cloudy,20,2013-03-23 04:52:00
11:52 PM,28.0,12.0,51,30.03,10.0,NNE,12.7,-,N/A,,Overcast,30,2013-03-23 05:52:00